Location: Sungai Wat
(2.7500°N, 114.1167°E)
Time: 23:34:35
(UTC+00:00)

Daily predictions for brighter satellites

Satellite Brightness Start Highest point End
(mag) Time Altitude Azimuth Time Altitude Azimuth Time Altitude Azimuth
CZ-3B Rocket 4.2 12:01:58 10° NW 12:06:01 27° NNE 12:06:01 27° NNE
USA 267 3.7 12:11:27 46° N 12:11:27 46° N 12:16:03 10° NNW
Cosmos 1802 Rocket 4.1 12:09:17 10° S 12:15:27 69° W 12:16:01 65° NW
Centaur AC-42 4.2 12:17:29 10° NW 12:56:09 - E 12:19:03 21° NNW
Lacrosse 5 3.5 12:20:58 10° WSW 12:24:47 31° WNW 12:24:47 31° WNW
Cosmos 2263 Rocket 4.4 12:34:34 10° NW 12:38:44 22° WSW 12:42:57 10° SSW
CZ-3B R/B 4.5 19:06:25 36° ESE 19:06:25 36° ESE 19:12:32 10° ESE
ATLAS 5 CENTAUR R/B 4.4 19:06:17 29° E 19:06:17 29° E 19:10:40 10° SE
Ariane H10+ 3.7 19:22:40 66° ENE 19:22:40 66° ENE 19:40:21 10° E
Cosmos 1980 Rocket 3.8 19:47:32 26° NE 19:49:03 30° ENE 19:53:55 10° SE
ATLAS 3B R/B 4.5 20:00:27 20° SSW 20:00:27 20° SSW 20:02:52 10° S
Cosmos 1697 Rocket 3.7 20:07:09 34° S 20:07:09 34° S 20:10:17 10° S
ARIANE 5 R/B 4.4 20:03:56 61° WNW 20:05:45 78° N 21:33:52 10° E
Ariane H10 3.3 20:12:35 66° W 20:13:38 86° N 20:46:09 10° E
Ariane H10 3.3 20:12:35 66° W 20:13:38 86° N 20:46:08 10° E
Ariane H10 3.3 20:12:34 66° W 20:13:38 86° N 20:46:09 10° E
Ariane H10 3.3 20:12:35 66° W 20:13:39 86° N 20:46:09 10° E
Hubble Space Telescope 3.1 20:22:08 16° NNE 20:22:08 16° NNE 20:24:35 10° ENE
Cosmos 2278 4.2 20:26:19 15° N 20:30:57 59° ENE 20:36:32 10° SSE
Spot 1 4.4 20:28:37 10° SSE 20:33:47 87° ENE 20:36:43 25° N
Okean 2 Rocket 2.9 20:35:14 54° NNW 20:36:14 84° W 20:40:43 10° S
Cosmos 2150 Rocket 3.8 20:35:38 53° NW 20:36:44 71° WSW 20:41:51 10° S
SL-8 Rocket 4.4 20:31:37 10° N 20:37:40 63° E 20:43:45 10° SSE
ATLAS 3B CENTAUR R/B 2.2 20:38:20 46° WSW 20:40:00 86° NNW 20:49:19 10° ENE
Cosmos 1470 2.7 20:41:20 33° N 20:42:56 80° E 20:46:48 10° S
Meteor 1-22 Rocket 4.0 20:39:35 20° NNW 20:43:31 67° W 20:48:53 10° S
Ariane H10 2.2 20:45:18 56° SSW 20:45:35 60° S 20:47:50 10° E
ARIANE 5 DEB (SYLDA) 2.8 20:46:39 31° S 20:46:39 31° S 20:48:41 10° ESE
ATLAS 5 CENTAUR R/B 3.5 20:47:53 30° WSW 20:48:43 30° WSW 20:55:04 10° S
GEOS 3 Rocket 3.9 20:44:27 10° N 20:49:11 41° WNW 20:50:08 37° W
Cosmos 389 Rocket 4.4 20:47:10 10° NNE 20:50:21 31° E 20:53:34 10° SSE
Cosmos 1726 2.8 20:53:27 36° SW 20:53:27 36° SW 20:56:07 10° SSW
FALCON 9 DEB 4.0 20:52:14 29° NNE 20:53:07 38° NE 20:55:54 10° SE
Envisat 3.9 20:48:17 10° NNE 20:53:11 50° ESE 20:58:06 10° S
Cosmos 405 4.2 20:59:28 26° SW 20:59:28 26° SW 21:01:28 10° SSW
Okean 1 Rocket 3.7 20:55:07 10° N 20:59:30 59° E 21:03:55 10° SSE
Milstar 3 3.3 20:54:02 16° WSW 21:03:09 65° NNW 21:10:08 10° NE
CZ-3B R/B 4.3 20:58:05 23° W 21:03:14 46° SSW 21:15:23 10° SE
FALCON 9 DEB 4.3 21:10:11 10° NNW 21:12:56 35° NE 21:15:44 10° SE
CZ-4B R/B 3.7 21:12:07 10° N 21:15:58 85° W 21:20:00 10° SSW
Atlas Centaur 2 4.2 21:14:44 12° NW 21:16:29 13° NNW 21:19:18 10° N
Cosmos 2151 Rocket 4.4 21:13:57 14° NW 21:16:57 28° W 21:20:46 10° SSW
Cosmos 2341 Rocket 4.5 21:12:11 10° NNW 21:17:46 36° W 21:23:23 10° SSW
SL-08 R/B 4.5 21:16:15 10° SSW 21:19:46 22° WSW 21:22:08 15° WNW
NOSS 3-3 (A) 4.2 21:15:57 10° SW 21:20:44 32° WNW 21:25:37 10° N
NOSS 3-3 (C) 4.2 21:16:01 10° SW 21:20:49 33° WNW 21:25:43 10° N
BLOCK DM-SL R/B 0.8 21:21:20 20° WSW 21:22:18 42° S 21:25:02 10° ESE
USA 229 DEB 4.4 21:18:20 10° NNW 21:26:09 72° ENE 21:33:59 10° SSE
USA 229 4.4 21:18:27 10° NNW 21:26:15 71° ENE 21:34:05 10° SSE
DELTA 2 R/B (1) 4.5 21:21:01 10° NNW 21:26:17 45° NE 21:31:33 10° ESE
Cosmos 1758 3.7 21:23:28 10° NNW 21:27:16 42° W 21:31:06 10° SSW
Cosmos 1025 Rocket 3.1 21:25:51 10° SSW 21:30:08 55° W 21:34:22 10° N
Cosmos 1953 2.9 21:28:27 10° N 21:32:22 60° E 21:36:17 10° SSE
Cosmos 1980 Rocket 3.5 21:29:24 12° WNW 21:32:45 19° WSW 21:36:33 10° SSW
Cosmos 1536 Rocket 4.2 21:33:02 10° S 21:37:26 61° E 21:41:48 10° NNE
Cosmos 1626 4.0 21:36:47 10° WSW 21:38:15 12° W 21:39:42 10° WNW
Cosmos 2366 rocket 4.5 21:33:28 10° NNW 21:39:16 39° W 21:45:05 10° SSW
SL-14 R/B 4.1 21:35:54 10° SSW 21:39:24 29° W 21:42:50 10° NNW
Cosmos 1908 3.1 21:37:50 10° N 21:41:36 75° W 21:45:24 10° S
Cosmos 1867 4.0 21:39:56 10° SW 21:44:54 39° WNW 21:49:56 10° N
Cosmos 1441 Rocket 4.2 21:42:06 10° SW 21:45:15 24° W 21:48:22 10° NNW
NOAA 11 4.4 21:40:54 10° NNE 21:46:18 78° ESE 21:51:44 10° S
NOSS 3-1 (A) 4.4 21:40:16 10° NNW 21:49:11 75° WSW 21:58:15 10° SSE
ATLAS 2AS CENTAUR RB 4.0 22:16:00 10° W 22:44:50 49° N 22:49:35 10° ENE
